Date,TemperatureHighF,TemperatureAvgF,TemperatureLowF,DewpointHighF,DewpointAvgF,DewpointLowF,HumidityHigh,HumidityAvg,HumidityLow,PressureMaxIn,PressureMinIn,WindSpeedMaxMPH,WindSpeedAvgMPH,GustSpeedMaxMPH,PrecipitationSumIn
2014-1-1,64.7,56.7,43.5,26.7,18.9,11.5,49,24,13,30.09,29.84,19,4,20,0.00
2014-1-2,55.0,41.8,18.1,27.5,19.8,14.4,89,46,24,30.45,30.19,11,1,11,0.00
2014-1-3,61.8,52.3,36.3,30.5,27.1,19.9,54,38,21,30.26,29.87,21,6,26,0.00
2014-1-4,63.2,58.2,51.1,32.1,25.4,15.8,41,29,20,29.83,29.65,25,9,30,0.00
2014-1-5,42.5,32.3,21.8,24.2,18.9,9.5,86,59,39,30.37,29.98,14,2,14,0.00
2014-1-6,34.0,20.7,14.4,12.4,9.3,6.9,74,61,39,30.57,30.48,0,0,0,0.00
2014-1-7,55.9,45.6,10.0,34.7,28.8,5.3,86,54,32,30.55,30.01,18,4,20,0.00
2014-1-8,60.9,48.2,28.5,36.2,26.9,21.0,80,48,23,30.13,29.83,19,3,20,0.00
2014-1-9,65.5,50.9,18.8,35.4,24.8,15.8,92,41,18,30.28,29.81,16,2,17,0.00
2014-1-10,59.8,53.4,38.3,32.9,20.5,7.8,54,28,17,29.92,29.69,28,7,29,0.00
2014-1-11,67.3,54.6,30.9,18.4,14.8,8.7,52,23,11,30.23,29.93,19,2,19,0.00
2014-1-12,69.1,62.1,49.5,23.4,16.9,12.4,28,17,12,29.99,29.66,22,6,26,0.00
2014-1-13,57.2,50.4,29.4,15.3,0.5,-10.4,48,14,6,30.34,29.97,20,4,21,0.00
2014-1-14,58.1,46.8,23.2,13.0,7.5,0.4,62,24,10,30.37,30.02,26,5,26,0.00
2014-1-15,59.5,37.0,13.8,23.8,11.9,6.0,84,44,13,30.57,30.01,22,2,25,0.00
2014-1-16,62.0,43.1,23.5,16.8,10.6,2.5,64,29,12,30.20,29.92,16,2,17,0.00
2014-1-17,58.0,36.4,13.6,24.1,15.5,8.5,85,49,18,30.47,30.15,14,1,17,0.00
2014-1-18,62.4,50.2,20.0,22.7,12.3,5.4,74,26,11,30.35,30.03,18,3,19,0.00
2014-1-19,64.2,54.6,19.9,20.6,12.7,6.4,77,20,12,30.46,30.07,19,3,22,0.00
2014-1-20,67.9,59.1,37.0,12.4,7.8,2.7,28,13,8,30.16,29.85,24,6,25,0.00
2014-1-21,59.5,47.0,21.0,18.1,12.1,6.3,68,27,14,30.56,30.21,16,2,16,0.00
2014-1-22,69.1,58.9,29.8,19.6,13.4,9.7,49,18,11,30.16,29.80,19,4,21,0.00
2014-1-23,35.8,29.4,18.6,18.8,13.2,-4.5,60,50,36,30.64,30.03,19,5,19,0.00
2014-1-24,58.7,44.4,16.9,23.5,15.9,-4.3,59,33,19,30.69,30.27,13,2,17,0.00
2014-1-25,68.4,55.9,36.3,29.5,20.8,5.9,58,27,12,30.24,29.89,16,1,16,0.00
2014-1-26,66.0,60.8,55.0,38.2,32.8,29.4,51,35,27,29.89,29.63,30,9,35,0.00
2014-1-27,54.4,36.3,26.3,28.7,18.7,12.1,69,49,31,30.16,29.79,17,2,17,0.00
2014-1-28,32.9,23.8,11.7,6.5,-3.9,-7.1,50,30,19,30.47,30.17,13,2,14,0.00
2014-1-29,59.5,30.6,6.3,15.8,6.4,-5.2,76,42,12,30.46,30.07,21,2,21,0.00
2014-1-30,71.5,62.6,49.4,25.3,21.3,18.4,38,21,15,29.92,29.64,22,6,24,0.00
2014-1-31,72.1,63.2,33.8,29.5,25.5,20.8,61,25,17,29.84,29.56,18,3,22,0.00
2014-2-1,68.6,57.2,39.8,26.5,21.9,16.4,50,26,15,29.74,29.55,17,2,19,0.00
2014-2-2,41.3,35.2,27.5,30.6,28.3,23.6,90,76,62,30.16,29.96,12,2,12,0.00
2014-2-3,51.3,42.3,21.3,37.8,30.4,18.3,92,65,43,30.12,29.73,11,1,12,0.00
2014-2-4,51.4,44.4,26.0,24.6,16.2,9.3,51,33,22,30.05,29.76,34,6,34,0.00
2014-2-5,27.0,20.5,17.8,21.4,16.0,12.4,88,82,78,30.37,30.28,11,3,12,0.00
2014-2-6,39.1,26.7,14.3,23.4,18.0,10.9,89,71,49,30.44,30.14,11,1,11,0.00
2014-2-7,53.9,46.3,16.7,25.4,20.6,9.9,86,38,26,30.22,30.00,39,8,39,0.00
2014-2-8,64.0,57.3,43.3,22.1,16.7,10.0,41,21,13,30.13,29.96,26,5,26,0.00
2014-2-9,71.3,63.3,25.3,25.8,20.9,15.2,66,21,13,30.17,29.78,26,6,26,0.00
2014-2-10,73.7,57.5,41.2,27.4,22.4,15.3,53,30,12,29.98,29.64,21,4,21,0.00
2014-2-11,42.1,32.5,18.1,24.0,20.5,13.8,87,62,45,30.24,30.06,12,2,12,0.00
2014-2-12,59.6,50.8,21.1,30.4,15.0,8.1,79,25,15,30.24,29.99,19,3,19,0.00
2014-2-13,68.8,62.8,52.2,23.6,19.9,10.4,27,19,16,29.97,29.69,22,7,26,0.00
2014-2-14,76.0,66.1,42.8,22.2,18.4,14.3,35,17,10,29.98,29.85,19,5,21,0.00
2014-2-17,67.4,50.0,42.6,17.1,15.1,13.6,33,25,14,29.99,29.86,2,0,11,0.00
2014-2-18,77.4,67.0,31.9,29.8,18.7,13.7,61,17,10,30.08,29.81,18,5,22,0.00
2014-2-19,76.5,67.0,27.9,22.3,14.3,8.5,56,14,8,29.97,29.58,27,5,28,0.00
2014-2-20,67.9,57.0,33.1,13.1,9.1,4.5,35,16,9,30.03,29.58,35,5,36,0.00
2014-2-21,72.5,58.8,19.4,13.0,6.9,-5.2,54,14,6,30.18,29.85,22,4,27,0.00
2014-2-22,74.2,62.7,25.7,13.1,8.4,2.6,43,13,7,30.03,29.73,18,4,19,0.00
2014-2-23,73.3,65.1,29.0,20.4,10.2,4.0,46,12,8,30.07,29.89,16,3,18,0.00
2014-2-24,76.3,60.6,32.4,25.5,19.6,14.4,48,23,11,30.07,29.78,13,0,16,0.00
2014-2-25,71.6,58.1,34.4,32.7,27.8,21.0,60,34,15,30.00,29.82,16,2,17,0.00
2014-2-26,62.6,46.8,31.2,39.5,33.0,28.7,94,63,32,30.19,29.73,19,3,20,0.05
2014-2-27,70.8,63.8,32.4,38.1,23.6,11.2,88,23,11,29.97,29.64,24,6,26,0.01
2014-2-28,73.3,63.7,41.5,28.8,23.0,16.7,38,22,14,29.82,29.59,24,6,25,0.01
2014-3-1,75.3,67.1,29.1,31.2,14.8,6.1,62,15,7,30.00,29.67,26,7,26,0.00
2014-3-2,66.3,57.9,42.1,38.0,30.6,23.6,58,36,23,29.99,29.74,24,6,26,0.00
2014-3-3,53.2,44.5,23.9,29.0,23.4,17.9,78,44,35,30.18,30.02,13,1,14,0.00
2014-3-4,68.4,61.1,39.6,30.7,24.3,14.9,64,25,20,30.02,29.71,12,1,12,0.00
2014-3-5,62.7,56.7,45.7,32.4,27.4,24.2,58,33,24,30.06,29.73,30,8,30,0.00
2014-3-6,69.6,60.4,24.2,28.6,18.6,12.6,87,22,13,30.24,29.83,19,3,24,0.00
2014-3-7,73.0,65.1,41.8,29.4,23.7,15.5,43,21,15,29.83,29.60,22,5,22,0.00
2014-3-8,49.9,45.8,42.8,33.3,29.5,26.5,61,53,43,30.18,29.86,19,6,19,0.00
2014-3-9,49.9,43.9,33.7,32.1,26.3,22.9,90,51,36,30.31,30.14,8,0,8,0.04
2014-3-10,66.3,54.2,29.4,40.6,35.5,25.7,91,52,30,30.13,29.83,8,0,14,0.04
2014-3-11,72.7,66.0,55.1,28.6,22.1,15.4,34,19,12,29.74,29.53,33,11,34,0.00
2014-3-12,49.5,42.0,31.2,22.4,18.7,16.3,69,40,28,30.31,30.16,20,5,20,0.00
2014-3-13,65.3,54.5,21.9,26.3,21.8,12.5,69,30,20,30.30,29.83,18,4,19,0.00
2014-3-14,71.8,61.9,36.2,32.5,25.3,18.3,61,27,14,29.85,29.77,18,2,19,0.00
2014-3-15,64.8,58.4,50.7,30.5,22.5,13.2,44,25,15,29.82,29.59,28,10,32,0.00
2014-3-16,48.8,42.5,33.2,33.1,25.6,15.2,88,54,32,30.22,30.08,18,6,25,0.23
2014-3-17,69.1,61.7,33.7,21.0,13.9,6.8,54,16,9,30.00,29.51,30,5,30,0.00
2014-3-18,73.7,66.7,46.0,13.9,7.9,2.2,27,10,7,29.72,29.50,30,7,30,0.00
2014-3-19,61.6,50.3,33.5,22.7,19.1,15.4,53,31,19,30.18,29.97,11,1,12,0.00
2014-3-20,73.5,67.8,61.2,16.0,12.5,7.4,15,12,8,29.96,29.82,18,4,19,0.00
2014-3-21,76.3,66.8,34.9,28.9,17.0,7.7,63,19,8,29.86,29.67,26,6,29,0.00
2014-3-22,74.6,63.8,45.4,31.6,26.9,20.5,43,26,17,29.91,29.69,17,2,21,0.00
2014-3-23,56.2,46.1,37.0,30.9,28.0,24.2,74,51,33,30.23,29.96,13,3,13,0.00
2014-3-24,73.7,63.6,27.9,30.5,21.6,15.4,81,24,12,30.12,29.90,20,5,24,0.00
2014-3-25,65.5,56.3,30.3,45.6,37.3,20.7,74,49,38,30.15,29.84,17,4,19,0.01
2014-3-26,72.0,67.9,43.8,40.3,19.9,14.6,87,16,13,29.77,29.57,25,7,28,0.00
2014-3-27,74.4,67.2,47.4,20.1,15.7,10.8,25,14,10,29.68,29.52,27,8,28,0.00
2014-3-28,68.4,61.7,43.6,28.2,21.5,12.4,39,22,13,30.00,29.75,26,8,28,0.00
2014-3-29,72.0,61.1,31.5,26.4,21.4,14.9,52,23,14,30.24,29.93,13,3,16,0.00
2014-3-30,79.9,71.4,43.5,39.3,34.4,26.4,61,27,16,29.95,29.57,26,6,27,0.00
2014-3-31,77.4,70.7,49.4,19.1,13.9,6.6,20,12,7,29.80,29.63,24,5,25,0.00
2014-4-1,80.5,71.2,31.3,20.5,14.4,9.5,44,13,7,29.95,29.59,26,4,26,0.00
2014-4-3,71.5,64.4,56.6,24.4,13.2,-1.5,18,14,9,29.74,29.58,20,8,25,0.00
2014-4-4,64.0,56.4,28.2,24.5,17.8,12.8,59,23,15,30.12,29.83,12,2,15,0.00
2014-4-5,72.8,64.2,54.4,30.8,25.3,20.4,34,23,15,29.72,29.45,26,7,31,0.00
2014-4-6,65.2,58.7,46.0,21.3,13.1,4.1,26,17,10,29.70,29.59,31,8,31,0.00
2014-4-7,62.6,55.4,32.5,31.6,22.3,13.1,53,28,17,30.05,29.79,26,6,26,0.03
2014-4-8,75.1,61.6,24.5,29.6,19.2,8.7,82,23,9,30.32,30.06,14,2,14,0.00
2014-4-9,82.6,71.5,28.5,17.5,8.1,-1.6,46,10,4,30.18,29.83,20,4,21,0.00
2014-4-10,80.5,70.2,55.6,-1.4,-6.9,-17.1,8,5,2,29.87,29.77,14,3,18,0.00
2014-4-11,83.6,73.5,39.8,22.4,8.1,-6.9,23,9,3,29.98,29.70,22,3,24,0.00
2014-4-12,78.5,71.4,43.2,33.4,26.4,19.3,45,20,12,29.77,29.54,26,6,28,0.00
2014-4-13,77.0,71.8,61.2,34.4,17.8,3.4,36,14,6,29.55,29.44,29,9,29,0.00
2014-4-14,50.7,44.6,32.9,27.1,19.6,13.6,73,38,26,30.26,29.85,18,7,20,0.00
2014-4-15,26.1,19.0,15.4,13.5,9.7,6.4,70,67,58,30.37,30.33,1,0,1,0.00
2014-4-20,75.4,69.8,55.9,44.6,34.4,27.0,64,29,17,29.87,29.79,18,3,20,0.00
2014-4-21,79.6,70.7,40.1,46.1,35.8,29.9,89,32,18,29.98,29.81,14,2,16,1.07
2014-4-22,80.3,72.2,44.1,49.5,40.8,35.1,86,35,21,29.93,29.60,16,3,19,0.00
2014-4-23,83.2,75.7,62.3,49.1,32.3,18.8,58,24,11,29.61,29.42,25,8,26,0.00
2014-4-24,79.2,71.0,51.1,27.0,19.1,9.6,36,15,7,29.79,29.66,19,3,19,0.00
2014-4-25,85.3,75.1,37.0,33.8,23.2,14.8,71,17,8,29.88,29.52,21,4,22,0.00
2014-4-26,83.0,73.2,47.7,42.0,21.6,6.6,67,20,6,29.62,29.33,29,8,33,0.00
2014-4-27,71.8,64.6,50.8,31.5,24.9,17.1,47,23,15,29.51,29.39,36,10,37,0.00
2014-4-28,76.8,69.0,56.6,26.8,23.2,19.3,27,18,12,29.65,29.46,26,7,28,0.00
2014-4-29,66.8,59.6,47.9,17.6,10.4,-0.9,23,14,10,29.89,29.74,21,6,21,0.00
2014-4-30,59.3,53.2,42.8,23.2,20.5,18.1,41,28,21,30.14,29.94,20,7,20,0.00
2014-5-1,62.4,53.9,47.6,27.6,23.2,18.7,45,30,23,30.07,29.92,19,6,20,0.00
2014-5-2,70.9,61.9,29.1,28.5,17.3,9.7,75,21,10,30.17,29.89,21,3,21,0.00
2014-5-3,79.9,71.5,31.8,24.8,15.9,4.9,58,14,7,30.05,29.80,22,2,22,0.00
2014-5-4,86.5,76.6,36.3,21.7,13.7,1.8,46,11,4,29.98,29.68,19,4,30,0.00
2014-5-5,89.5,79.5,41.9,24.4,18.3,11.4,32,11,6,29.87,29.54,19,2,22,0.00
2014-5-6,77.0,71.7,66.1,38.1,34.1,30.5,33,26,19,29.52,29.47,26,6,34,0.00
2014-5-7,82.0,76.4,55.7,41.5,31.7,19.5,54,20,11,29.57,29.36,34,11,36,0.00
2014-5-8,76.1,69.4,40.8,26.1,18.8,11.8,36,15,10,29.74,29.62,22,5,24,0.00
2014-5-9,81.6,73.2,41.2,24.1,12.9,3.1,41,12,5,29.90,29.63,22,4,22,0.00
2014-5-10,87.4,79.0,36.9,21.0,14.9,9.7,38,10,6,29.78,29.42,25,5,27,0.00
2014-5-11,89.7,81.4,44.5,34.3,18.7,7.1,50,12,5,29.55,29.29,24,7,27,0.00
2014-5-12,81.2,73.4,55.4,29.8,24.9,18.0,31,17,10,29.69,29.54,19,3,19,0.00
2014-5-13,56.7,50.5,42.1,28.0,25.2,21.5,56,38,27,30.22,29.96,21,8,21,0.00
2014-5-14,62.7,55.7,29.4,25.6,15.9,8.1,69,22,13,30.38,30.14,16,4,19,0.00
2014-5-15,74.2,63.4,26.0,17.0,9.1,4.3,47,13,7,30.50,29.91,20,2,20,0.00
2014-5-16,84.1,73.5,33.8,18.1,12.6,5.9,32,11,6,30.06,29.81,22,5,22,0.00
2014-5-17,86.5,73.0,39.2,29.7,20.4,9.3,34,15,9,29.82,29.59,10,1,12,0.00
2014-5-18,92.1,82.1,47.1,38.6,22.2,5.1,55,14,4,29.76,29.52,21,3,22,0.00
2014-5-19,92.1,83.7,52.0,46.8,29.6,18.1,65,17,7,29.70,29.52,21,3,22,0.00
2014-5-20,93.2,81.7,46.2,51.3,22.2,12.8,41,13,7,29.78,29.56,17,1,17,0.00
2014-5-21,89.9,83.8,69.9,51.1,33.8,25.0,46,18,10,29.68,29.53,20,4,24,0.00
2014-5-22,82.6,72.3,56.6,58.9,48.4,34.0,92,46,19,29.82,29.63,17,3,19,0.50
2014-5-23,80.7,72.9,59.0,57.7,53.9,45.1,86,53,33,29.81,29.60,15,2,17,0.01
2014-5-24,83.2,72.4,64.0,59.6,52.8,39.3,84,54,22,29.71,29.55,16,2,18,0.00
2014-5-25,83.8,73.1,48.3,54.4,36.0,18.0,89,33,9,29.77,29.62,21,2,21,0.00
2014-5-26,83.8,75.6,47.7,46.0,35.0,30.1,80,26,16,29.83,29.65,19,3,20,0.00
2014-5-27,87.8,78.8,48.8,40.6,33.3,25.5,66,22,11,29.80,29.64,20,5,20,0.00
2014-5-28,83.6,77.4,48.9,50.3,42.2,36.2,68,30,19,29.83,29.75,17,4,19,0.00
2014-5-29,83.0,75.5,52.6,47.4,42.4,35.4,69,32,21,29.81,29.71,14,4,17,0.00
2014-5-30,84.5,78.0,70.6,44.7,43.3,41.8,39,29,23,29.72,29.65,10,1,11,0.00
2014-5-31,91.6,81.1,52.2,49.9,44.6,39.8,73,30,17,29.80,29.58,14,1,14,0.00
2014-6-1,93.6,84.4,56.9,52.1,43.2,35.2,67,25,14,29.68,29.43,21,3,21,0.00
2014-6-2,99.7,89.4,58.1,53.2,29.9,16.2,68,17,6,29.61,29.48,14,3,34,0.00
2014-6-3,98.0,85.0,55.9,58.7,45.9,37.4,72,29,13,29.67,29.49,17,2,17,0.00
2014-6-4,100.4,82.5,65.3,56.0,44.3,30.2,66,33,9,29.60,29.42,18,1,18,0.00
2014-6-5,101.5,90.8,55.0,54.9,36.5,11.6,79,19,4,29.56,29.39,18,2,18,0.00
2014-6-6,98.0,86.9,63.2,57.5,48.5,34.8,74,30,12,29.51,29.37,22,4,22,0.00
2014-6-7,95.4,80.9,68.6,67.7,54.7,45.7,84,43,20,29.53,29.42,17,2,18,0.21
2014-6-8,83.6,74.1,66.9,67.9,61.6,58.0,88,66,46,29.59,29.47,14,1,14,0.44
2014-6-9,78.3,71.9,64.0,59.9,53.1,43.4,79,53,37,29.75,29.56,21,5,21,0.44
2014-6-10,89.7,82.9,57.6,54.2,47.2,37.3,71,30,17,29.82,29.56,19,2,19,0.00
2014-6-11,96.3,87.4,58.4,53.4,39.9,29.4,70,22,10,29.63,29.43,24,3,24,0.00
2014-6-12,91.6,85.7,62.1,49.8,40.9,34.1,47,21,16,29.67,29.57,17,5,18,0.00
2014-6-13,80.7,73.6,66.3,64.1,59.5,46.9,87,63,39,29.75,29.68,13,0,13,0.05
2014-6-14,86.5,75.7,66.3,54.2,50.8,44.4,63,44,25,29.72,29.47,22,4,22,0.01
2014-6-15,93.8,86.6,68.8,55.9,42.8,36.7,62,22,16,29.60,29.51,28,3,28,0.02
2014-6-16,90.3,82.4,65.6,57.3,45.5,38.9,72,29,18,29.68,29.55,18,2,18,0.02
2014-6-17,90.1,80.6,62.7,58.1,47.3,39.5,76,33,17,29.71,29.57,21,2,21,0.00
2014-6-18,91.2,81.4,60.2,50.6,46.6,41.7,63,31,19,29.70,29.55,18,1,20,0.00
2014-6-19,89.3,76.8,59.8,57.8,49.0,42.7,90,43,21,29.83,29.58,13,2,19,0.34
2014-6-20,78.8,71.5,56.0,61.2,58.4,53.7,94,65,45,29.87,29.72,14,2,16,0.02
2014-6-21,81.2,72.3,60.1,61.9,59.1,55.3,91,65,42,29.75,29.64,12,0,12,0.00
2014-6-22,90.5,80.2,65.0,64.6,55.7,48.3,83,47,24,29.65,29.53,14,2,14,0.00
2014-6-24,88.0,81.7,69.9,63.4,51.6,43.8,67,37,24,29.79,29.66,14,1,14,0.05
2014-6-25,87.4,69.4,58.4,60.0,55.2,46.5,87,64,31,29.83,29.68,21,4,25,2.49
2014-6-26,88.4,74.9,62.6,65.2,57.1,44.6,85,56,27,29.78,29.52,32,3,38,0.93
2014-6-27,92.5,88.4,74.2,65.3,50.4,43.2,71,29,19,29.52,29.36,17,4,18,0.02
2014-6-28,92.3,83.7,56.9,64.4,47.8,37.3,92,34,15,29.59,29.50,20,3,24,0.04
2014-6-29,95.9,87.5,73.3,65.3,52.7,43.3,76,33,17,29.66,29.55,16,2,18,0.01
2014-6-30,92.5,84.4,72.7,62.0,51.6,40.4,56,33,20,29.67,29.50,21,5,25,0.11
2014-7-1,89.3,75.8,73.7,56.0,50.8,47.3,50,42,28,29.63,29.51,18,3,24,0.11
2014-7-2,83.8,76.8,58.9,61.3,56.2,51.1,85,50,35,29.88,29.63,14,3,16,0.00
2014-7-3,79.8,72.5,56.6,60.9,55.9,49.3,92,58,37,29.90,29.84,16,1,17,0.00
2014-7-4,84.5,75.8,57.6,56.5,51.7,44.7,83,45,25,29.94,29.79,11,1,14,0.00
2014-7-5,87.2,84.5,79.9,50.0,45.7,42.5,31,26,22,29.85,29.72,14,1,14,0.00
2014-7-6,84.3,78.7,60.1,59.2,54.1,45.7,85,44,28,29.81,29.68,16,2,16,0.00
2014-7-7,80.3,74.6,63.9,59.8,54.7,48.9,81,51,37,29.80,29.68,14,2,18,0.03
2014-7-8,87.0,78.8,53.1,57.5,50.9,42.1,88,40,22,29.84,29.67,14,2,18,0.00
2014-7-9,85.7,77.4,55.6,60.7,53.9,45.5,89,47,25,29.81,29.66,14,1,31,0.00
2014-7-10,84.9,76.4,56.6,61.6,54.2,44.7,92,48,32,29.81,29.63,14,2,16,0.00
2014-7-11,85.9,77.3,53.9,62.5,55.0,47.5,94,49,28,29.81,29.69,14,2,17,0.00
2014-7-12,83.8,71.9,63.7,64.1,59.6,52.9,89,67,35,29.89,29.76,15,1,19,0.24
2014-7-13,86.7,79.0,57.0,61.5,54.2,46.7,93,45,26,29.93,29.73,11,0,13,0.01
2014-7-14,88.4,80.3,59.0,66.5,53.5,43.5,90,43,23,29.86,29.68,19,1,19,0.08
2014-7-15,82.0,74.1,64.8,60.9,57.4,53.0,78,57,41,29.87,29.70,19,1,22,0.08
2014-7-16,88.8,79.3,62.0,63.5,55.4,46.9,88,48,27,29.79,29.55,20,3,22,0.01
2014-7-17,84.0,75.7,64.8,64.3,59.0,55.7,88,58,40,29.71,29.60,21,3,21,0.54
2014-7-18,83.8,73.4,63.7,66.3,64.0,59.8,97,75,45,29.82,29.64,11,0,11,0.00
2014-7-19,86.5,76.2,62.1,66.6,63.5,59.0,96,67,40,29.81,29.69,12,0,13,0.01
2014-7-20,89.7,82.2,66.3,62.5,57.4,50.4,85,44,29,29.76,29.67,18,2,25,0.09
2014-7-21,90.7,82.0,66.4,62.2,56.7,50.3,82,44,27,29.82,29.69,13,0,13,0.02
2014-7-22,89.9,82.0,62.4,65.2,57.4,49.0,92,46,27,29.82,29.73,13,1,14,0.00
2014-7-23,87.0,80.2,59.0,62.3,50.4,40.4,91,39,20,29.91,29.78,17,2,19,0.00
2014-7-24,88.6,80.9,55.9,59.8,50.6,43.3,89,38,22,29.91,29.71,14,1,16,0.00
2014-7-25,90.7,81.9,57.0,59.0,47.9,37.6,86,35,16,29.83,29.69,13,1,13,0.00
2014-7-26,92.1,84.0,58.6,60.8,52.9,44.6,87,38,20,29.77,29.62,14,1,14,0.00
2014-7-27,93.8,86.2,59.5,58.5,51.5,43.7,79,32,20,29.77,29.69,13,1,22,0.00
2014-7-28,87.2,75.5,65.3,64.4,57.4,50.0,87,57,29,29.96,29.77,13,2,13,0.07
2014-7-29,89.9,81.8,55.1,57.6,48.6,42.5,87,34,20,29.92,29.70,10,1,13,0.00
2014-7-30,91.8,79.5,61.8,63.0,52.4,46.0,79,42,24,29.80,29.66,19,4,21,0.02
2014-7-31,74.6,68.9,63.9,62.4,59.9,54.5,82,73,56,29.88,29.70,13,4,13,0.00
2014-8-1,77.0,69.0,62.3,64.2,59.9,57.3,91,74,52,29.95,29.82,11,2,12,0.08
2014-8-2,79.4,71.0,62.6,62.5,59.5,55.5,91,69,45,29.92,29.80,17,3,17,0.08
2014-8-3,82.4,75.4,60.4,61.2,54.2,49.5,93,50,35,29.96,29.79,11,0,13,0.01
2014-8-4,83.8,76.9,53.9,58.9,48.9,43.5,92,40,26,29.92,29.77,13,0,13,0.06
2014-8-5,85.7,78.7,55.7,57.2,51.6,46.7,85,41,27,29.91,29.72,8,0,11,0.00
2014-8-6,86.5,77.9,57.2,63.2,56.7,46.7,83,50,30,29.86,29.65,15,0,19,0.18
2014-8-7,92.1,80.7,56.3,62.6,54.1,40.5,91,45,19,29.77,29.61,17,1,20,0.07
2014-8-8,88.4,79.0,58.7,61.5,54.3,47.6,91,45,26,29.81,29.62,18,2,21,0.07
2014-8-9,86.1,72.5,56.7,61.3,55.9,47.7,86,58,27,29.87,29.70,19,2,20,0.06
2014-8-10,86.3,77.3,52.3,64.5,55.2,46.9,97,50,27,29.90,29.73,17,2,19,0.01
2014-8-11,83.6,74.5,59.9,59.6,56.5,49.3,89,56,31,29.94,29.81,17,2,19,0.00
2014-8-12,83.8,72.5,57.2,63.8,58.8,52.5,95,65,36,29.97,29.83,17,1,17,0.04
2014-8-13,84.1,75.1,56.5,59.9,56.4,52.0,94,55,37,29.95,29.80,13,0,16,0.01
2014-8-14,85.9,78.1,71.3,58.4,54.2,49.9,62,45,30,29.75,29.69,16,0,16,0.01
2014-8-15,87.6,79.0,56.2,67.7,56.2,50.1,84,48,29,29.86,29.64,14,1,14,0.11
2014-8-16,84.9,69.9,59.9,65.5,59.9,53.9,89,72,36,29.86,29.71,24,2,33,0.22
2014-8-17,86.3,75.0,56.6,61.4,57.5,52.0,91,57,33,29.87,29.68,21,2,21,0.26
2014-8-18,83.2,75.1,55.9,60.5,55.9,50.4,92,53,34,29.84,29.64,17,0,18,0.00
2014-8-19,85.5,75.4,56.7,63.1,57.8,50.2,94,56,31,29.71,29.57,21,1,29,0.03
2014-8-20,85.5,78.2,65.8,61.0,56.5,52.1,82,49,33,29.69,29.55,14,2,14,0.00
2014-8-21,87.4,76.4,63.5,63.0,58.5,49.1,86,57,30,29.78,29.64,36,2,36,0.17
2014-8-22,86.1,79.0,66.9,62.1,56.9,49.5,76,49,29,29.82,29.62,17,2,17,0.00
2014-8-23,85.7,76.9,63.5,61.0,56.0,48.0,78,50,29,29.80,29.64,14,2,14,0.16
2014-8-24,89.7,79.8,56.7,63.5,53.2,45.1,94,44,22,29.80,29.62,14,1,16,0.18
2014-8-25,88.6,76.5,58.7,61.6,55.7,46.7,88,52,26,29.79,29.65,17,1,18,0.06
2014-8-26,84.7,76.8,58.4,61.8,56.8,51.3,91,52,33,29.90,29.73,14,0,14,0.01
2014-8-27,85.9,76.7,54.5,59.2,54.4,44.6,91,49,27,29.90,29.74,17,1,17,0.00
2014-8-28,89.7,78.9,55.6,59.7,55.0,48.1,91,47,27,29.82,29.62,16,2,16,0.00
2014-8-29,87.6,81.7,66.1,45.9,42.9,39.9,48,26,20,29.69,29.61,17,4,17,0.00
2014-8-30,86.1,80.7,71.5,47.1,44.7,41.1,40,28,24,29.72,29.65,10,0,18,0.00
2014-8-31,93.6,84.2,55.0,60.0,49.6,42.3,88,33,18,29.79,29.56,16,1,16,0.00
2014-9-1,94.9,86.2,56.7,61.0,47.8,40.9,88,30,17,29.73,29.53,16,1,16,0.00
2014-9-2,94.7,84.5,56.5,61.2,49.5,38.1,85,35,16,29.72,29.56,12,1,12,0.00
2014-9-3,89.9,81.0,54.5,60.1,53.7,47.4,91,42,25,29.72,29.58,17,3,20,0.00
2014-9-4,82.0,74.3,62.7,59.2,56.7,52.9,84,56,38,29.73,29.60,16,4,19,0.00
2014-9-5,76.8,72.2,67.6,64.0,61.0,56.5,83,69,50,29.79,29.69,8,0,12,0.02
2014-9-6,74.6,67.1,61.6,62.5,60.3,56.9,94,79,61,29.90,29.78,16,2,16,0.41
2014-9-7,71.3,65.9,61.3,64.0,61.5,60.0,96,86,69,29.95,29.80,5,0,6,0.52
2014-9-8,81.6,75.6,61.8,63.0,59.8,55.4,92,59,43,29.85,29.68,16,2,19,0.10
2014-9-9,84.7,78.4,60.4,61.4,58.3,52.9,89,51,35,29.78,29.60,18,3,20,0.00
2014-9-10,87.6,80.2,63.2,54.6,47.6,41.8,63,33,21,29.69,29.58,14,3,18,0.00
2014-9-11,81.1,71.2,55.6,63.8,59.9,50.5,86,68,47,29.79,29.71,11,1,11,0.00
2014-9-12,76.5,64.7,54.1,65.4,58.6,50.9,93,81,59,30.02,29.78,18,2,18,0.45
2014-9-13,56.2,52.9,48.3,50.6,47.5,44.2,91,82,75,30.16,30.05,4,0,5,0.01
2014-9-14,69.3,63.2,56.7,59.3,57.3,55.3,96,82,66,30.05,29.90,17,1,17,0.01
2014-9-15,75.8,68.5,60.5,62.4,59.7,56.6,88,74,58,29.96,29.82,7,0,8,0.03
2014-9-16,79.0,72.1,60.7,64.4,58.6,55.0,96,64,45,29.92,29.76,12,1,12,0.00
2014-9-17,83.2,74.8,56.9,64.8,59.1,54.5,95,60,38,29.84,29.62,8,1,11,0.00
2014-9-18,81.4,73.1,63.4,65.8,62.7,57.2,93,71,49,29.68,29.54,12,1,16,0.01
2014-9-19,80.1,75.4,67.6,65.7,63.1,59.9,86,66,51,29.71,29.54,12,1,14,0.22
2014-9-20,78.1,70.1,58.7,66.6,63.7,56.5,97,81,58,29.76,29.69,13,0,14,0.07
2014-9-21,79.2,70.6,60.2,66.1,63.2,58.6,97,78,53,29.88,29.77,13,1,13,0.13
2014-9-22,72.0,67.7,62.7,61.8,57.8,53.7,90,71,59,29.97,29.86,13,1,17,0.13
2014-9-23,76.0,69.0,55.7,57.6,52.9,46.8,91,58,40,29.98,29.83,14,2,15,0.00
2014-9-24,76.7,69.9,51.4,59.6,54.8,49.4,95,61,41,29.98,29.84,6,0,6,0.00
2014-9-25,64.3,60.8,56.7,59.3,57.5,55.0,95,89,80,30.03,29.92,0,0,0,0.62
2014-9-26,69.8,61.2,56.0,56.6,54.3,47.9,94,79,51,29.96,29.86,11,0,11,0.14
2014-9-27,71.8,64.4,55.4,56.7,54.9,52.5,96,73,53,29.94,29.76,7,0,7,0.01
2014-9-28,76.5,68.4,48.0,62.7,58.6,46.9,97,72,52,29.93,29.79,10,1,12,0.01
2014-9-29,79.9,72.7,65.3,58.4,55.1,48.9,73,55,36,29.73,29.68,8,0,8,0.01
2014-9-30,83.4,75.5,56.7,58.5,53.1,46.5,89,48,29,29.72,29.53,16,2,17,0.01
2014-10-1,81.8,73.4,49.5,61.0,45.3,34.9,96,42,20,29.74,29.59,17,2,20,0.00
2014-10-2,79.0,70.8,48.9,44.9,32.9,23.9,86,28,14,29.91,29.72,19,4,21,0.00
2014-10-3,80.9,69.4,38.3,50.2,40.5,31.4,94,41,18,30.16,29.97,11,0,11,0.00
2014-10-4,81.1,69.1,39.3,50.9,41.6,29.7,94,42,16,30.13,29.80,17,2,17,0.00
2014-10-5,81.6,74.0,49.9,38.9,30.0,23.6,65,21,13,29.79,29.64,26,6,26,0.00
2014-10-6,83.2,72.2,42.1,40.6,32.3,20.5,73,27,11,29.90,29.73,14,0,17,0.00
2014-10-7,83.2,73.2,36.9,45.5,34.9,27.4,87,29,14,29.99,29.76,19,4,19,0.00
2014-10-8,85.1,76.0,43.5,48.3,39.7,35.0,82,31,19,29.94,29.67,14,2,18,0.00
2014-10-9,85.3,74.8,49.1,55.4,47.4,41.7,91,42,25,29.80,29.55,16,1,16,0.00
2014-10-10,80.1,71.8,52.8,51.7,45.2,36.8,75,42,23,29.82,29.69,15,2,16,0.00
2014-10-11,71.8,59.4,49.5,49.5,47.3,43.8,86,66,46,30.02,29.83,12,1,12,0.00
2014-10-12,78.8,70.9,39.9,58.5,41.7,30.9,97,39,20,29.92,29.53,26,5,27,0.00
2014-10-13,62.9,55.8,41.9,34.6,29.3,25.6,61,38,25,30.08,29.85,19,4,19,0.00
2014-10-14,73.2,59.2,27.3,33.5,26.4,21.9,88,34,15,30.30,30.03,8,0,8,0.00
2014-10-15,81.4,66.8,29.7,32.9,28.7,23.7,81,29,14,30.22,29.91,12,0,12,0.00
2014-10-16,84.5,72.5,53.9,36.0,34.1,30.5,50,27,15,29.90,29.76,14,1,14,0.00
2014-10-17,85.9,73.6,39.5,44.2,38.0,30.0,83,33,15,29.96,29.72,18,0,18,0.00
2014-10-18,72.8,64.8,41.2,48.7,45.0,35.8,81,50,36,29.94,29.85,16,3,16,0.00
2014-10-19,75.8,66.2,52.9,55.3,50.6,43.3,85,59,36,29.93,29.73,17,3,17,0.00
2014-10-20,61.6,57.8,55.3,54.7,52.5,50.2,93,83,70,29.96,29.81,10,0,10,0.30
2014-10-21,62.9,58.2,52.5,57.0,54.1,50.0,93,86,67,29.90,29.81,6,0,10,0.38
2014-10-22,71.5,63.7,53.8,57.3,54.3,51.2,91,73,54,29.93,29.78,14,2,14,0.48
2014-10-23,76.8,67.4,50.4,61.8,52.4,45.6,97,63,35,30.02,29.83,8,0,8,0.01
2014-10-24,79.6,67.7,43.8,59.4,48.1,40.7,96,55,28,30.09,29.91,6,0,6,0.00
2014-10-25,80.3,67.7,43.2,56.6,46.8,40.7,96,53,27,30.13,29.90,11,0,11,0.01
2014-10-26,83.0,68.8,39.8,57.1,42.2,34.9,96,45,20,30.01,29.73,16,1,16,0.01
2014-10-27,79.4,70.2,43.1,54.3,44.0,37.5,94,42,27,29.83,29.68,16,2,16,0.00
2014-10-28,71.3,61.7,47.4,46.0,42.6,40.2,80,52,34,30.03,29.85,11,1,11,0.00
2014-10-29,75.6,61.9,36.6,51.9,46.9,34.8,95,61,34,30.17,29.94,10,0,10,0.00
2014-10-30,79.0,66.0,40.3,56.5,39.6,30.2,96,44,21,30.11,29.92,17,2,17,0.00
2014-10-31,67.6,59.0,44.5,51.5,42.7,36.4,92,58,34,30.24,30.03,14,3,14,0.00
2014-11-1,67.3,59.7,39.5,48.7,44.9,35.1,87,59,45,30.20,29.94,21,3,21,0.00
2014-11-2,67.8,61.2,47.1,48.1,45.1,42.5,89,57,44,29.99,29.78,14,2,14,0.00
2014-11-3,71.1,62.3,46.8,50.8,48.5,44.0,92,62,42,29.90,29.73,27,5,27,0.00
2014-11-4,56.9,46.1,40.8,55.2,43.6,38.0,96,91,85,30.11,29.81,14,1,14,1.02
2014-11-5,49.6,46.1,42.8,43.7,42.5,40.8,95,87,76,30.24,30.06,13,0,13,0.38
2014-11-6,49.5,45.3,42.2,42.7,39.6,35.5,89,81,61,30.34,30.26,13,1,13,0.08
2014-11-7,64.3,54.7,35.9,47.5,43.0,33.3,92,66,50,30.26,29.92,22,2,22,0.00
2014-11-8,58.3,53.5,46.7,40.5,38.3,36.4,74,57,47,30.25,30.04,22,6,22,0.00
2014-11-9,66.3,59.9,33.8,42.2,36.7,30.0,91,43,27,30.22,29.74,27,6,27,0.00
2014-11-10,70.4,65.3,55.6,43.2,37.0,32.3,57,36,26,29.69,29.54,33,8,33,0.00
2014-11-11,55.9,46.0,35.9,33.2,30.3,26.2,82,56,38,30.06,29.81,8,0,10,0.00
2014-11-12,38.2,31.0,24.1,25.0,19.8,13.1,87,64,51,30.39,30.18,13,3,13,0.00
2014-11-13,39.6,31.9,17.2,20.0,15.7,10.4,76,52,39,30.55,30.31,7,1,11,0.00
2014-11-14,66.9,52.3,25.8,41.2,37.0,23.0,92,59,34,30.24,29.86,13,1,16,0.00
2014-11-15,67.1,58.8,43.3,41.7,36.1,29.1,71,44,29,29.94,29.75,24,4,24,0.00
2014-11-16,65.0,43.2,27.0,36.9,28.2,13.5,85,59,24,30.13,29.73,24,2,24,0.00
2014-11-17,45.7,32.1,15.9,15.6,7.6,-7.4,84,41,14,30.53,30.12,12,0,12,0.00
2014-11-18,57.8,35.7,16.9,21.4,12.9,4.0,82,45,12,30.45,30.20,8,0,16,0.00
2014-11-19,63.9,41.0,19.1,22.3,15.9,7.6,74,43,12,30.40,30.06,17,1,17,0.00
2014-11-20,67.6,48.5,25.1,37.2,22.8,9.5,83,44,13,30.10,29.81,17,2,17,0.00
2014-11-21,68.8,45.2,25.4,34.6,26.0,20.4,85,53,20,30.16,29.84,19,1,19,0.00
2014-11-22,63.2,50.2,37.8,40.3,32.9,27.6,80,54,27,29.94,29.66,24,3,24,0.00
2014-11-23,62.0,53.2,36.2,29.0,23.7,17.6,66,33,19,29.91,29.48,41,9,41,0.00
2014-11-24,52.9,39.0,24.5,26.5,6.3,-7.6,84,33,9,30.14,29.90,22,2,22,0.00
2014-11-25,52.0,41.0,28.7,11.5,5.6,-3.6,46,24,10,30.48,30.09,13,3,20,0.00
2014-11-26,67.8,50.9,31.5,20.3,12.8,-5.7,60,24,10,30.26,30.01,18,3,18,0.00
2014-11-27,66.3,41.5,21.0,25.6,19.0,15.5,83,48,16,30.53,30.23,13,0,13,0.00
2014-11-28,69.6,45.9,21.6,27.4,15.4,7.6,80,39,10,30.36,29.88,20,2,20,0.00
2014-11-29,72.5,50.6,31.5,20.9,15.6,8.5,54,29,9,30.05,29.74,21,2,21,0.00
2014-11-30,72.5,48.4,25.8,19.6,15.9,9.9,61,33,10,30.09,29.87,17,2,17,0.00
2014-12-1,50.4,34.3,22.2,29.6,17.7,13.1,71,52,27,30.44,30.03,12,0,12,0.00
2014-12-2,68.8,45.9,21.6,43.8,32.0,14.1,96,63,24,30.36,29.90,18,1,18,0.00
2014-12-3,73.2,56.7,39.2,43.1,34.8,22.9,79,46,27,30.04,29.77,14,2,14,0.00
2014-12-4,71.5,52.0,34.3,43.1,35.6,30.8,92,59,26,30.08,29.78,18,1,18,0.00
2014-12-5,67.3,60.5,45.8,44.0,36.9,31.8,76,43,28,30.15,29.89,26,5,26,0.00
2014-12-6,63.1,49.8,29.0,38.9,33.6,26.2,93,58,30,30.46,30.19,13,2,13,0.00
2014-12-7,64.8,52.4,35.9,45.5,41.3,32.4,88,67,48,30.25,30.02,11,0,11,0.00
2014-12-8,62.9,52.6,25.6,44.1,38.0,23.3,95,61,41,30.40,30.16,16,1,16,0.00
2014-12-9,56.2,53.9,42.2,47.3,45.2,40.9,96,73,68,30.28,30.10,11,0,11,0.00
2014-12-10,64.5,54.4,39.9,50.4,46.4,36.8,96,76,56,30.09,29.84,13,0,13,0.01
2014-12-11,69.8,54.1,32.7,55.0,41.5,31.4,98,68,27,30.16,29.89,13,0,13,0.01
2014-12-12,70.4,47.8,31.5,53.0,35.4,30.0,97,69,27,30.24,29.97,18,1,21,0.01
2014-12-13,70.4,51.6,31.6,49.4,37.2,29.5,96,64,27,30.13,29.62,26,3,26,0.00
2014-12-14,59.8,52.5,37.2,46.0,29.8,12.2,80,46,17,29.88,29.59,29,4,29,0.00
2014-12-15,62.4,46.1,28.2,23.1,17.7,9.3,62,35,13,30.13,29.89,22,4,22,0.00
2014-12-16,57.5,39.9,23.5,38.1,27.2,15.5,82,62,39,30.31,30.00,11,0,11,0.00
2014-12-17,60.9,47.4,31.0,42.2,31.3,21.8,91,59,25,30.08,29.81,25,3,25,0.00
2014-12-18,59.0,40.8,21.6,31.4,24.2,17.2,87,57,27,30.27,29.98,14,0,14,0.00
2014-12-19,55.0,38.4,22.1,32.7,24.6,18.3,91,62,30,30.21,29.99,17,1,17,0.00
2014-12-20,57.5,36.2,17.5,33.2,22.3,13.8,91,62,28,30.26,30.00,20,2,20,0.00
2014-12-21,60.2,46.1,20.5,24.8,18.4,7.8,81,38,18,30.06,29.65,19,4,21,0.00
2014-12-22,67.4,55.6,44.3,30.0,26.9,21.5,50,34,21,29.74,29.48,28,4,28,0.00
2014-12-23,55.0,36.6,27.3,34.9,28.8,20.3,88,74,38,30.17,29.46,26,3,26,0.05
2014-12-24,46.0,39.5,24.7,20.8,15.0,9.2,71,37,25,30.33,30.01,21,5,21,0.00
2014-12-25,61.2,51.3,35.6,18.2,14.2,8.6,32,23,14,29.92,29.65,27,5,27,0.00
2014-12-26,62.3,53.6,35.3,31.8,21.9,14.1,74,34,16,29.89,29.62,38,8,38,0.00
2014-12-27,35.8,33.1,30.6,32.0,29.2,27.1,90,85,79,30.28,30.17,11,1,11,0.02
2014-12-28,48.9,36.0,22.1,30.5,20.2,12.1,91,56,26,30.32,30.02,25,4,25,0.04
2014-12-29,57.8,41.1,23.8,29.1,16.2,3.9,83,41,13,30.25,29.89,19,2,19,0.00
2014-12-30,43.9,28.3,19.4,26.1,19.7,10.9,90,72,26,30.41,29.95,12,1,12,0.00
2014-12-31,23.9,20.7,18.0,21.7,18.0,14.9,91,89,88,30.49,30.25,0,0,0,0.00
2015-1-1,52.2,36.8,23.3,41.6,31.9,21.1,96,83,58,30.25,29.83,12,0,12,0.00
2015-1-2,43.8,32.5,26.6,41.9,30.9,24.4,96,94,88,29.99,29.81,11,0,11,1.07